Weather History for Fryeburg, ME

Change the Weather History Date:

Friday, January 11, 2013

  Actual Average Record
Temperature  
Mean Temperature 24 °F -  
Max Temperature 37 °F 26 °F 45 °F (2000)
Min Temperature 12 °F 6 °F -23 °F (2004)
Degree Days  
Heating Degree Days 40    
Moisture  
Dew Point 20 °F    
Average Humidity 77    
Maximum Humidity 96    
Minimum Humidity 50    
Precipitation  
Precipitation 0.04 in - - ()
Sea Level Pressure  
Sea Level Pressure 30.39 in    
Wind  
Wind Speed 1 mph (SSE)    
Max Wind Speed 7 mph    
Max Gust Speed -    
Visibility 9 miles    
Events Rain    
Averages and records for this station are not official NWS values.
T = Trace of Precipitation, MM = Missing Value Source: NWS Daily Summary

Daily Weather History Graph

Daily Weather History Graph

Search for Another Location

Airport:

Trip Planner

Search our weather history database for the weather conditions in past years. The results will help you decide how hot, cold, wet, or windy it might be!

Date:

Astronomy

Jan. 11, 2013 Rise Set
Actual Time 7:16 AM EST 4:27 PM EST
Civil Twilight 6:44 AM EST 4:59 PM EST
Nautical Twilight 6:08 AM EST 5:35 PM EST
Astronomical Twilight 5:34 AM EST 6:10 PM EST
Moon 6:46 AM EST (1/11) 4:43 PM EST (1/11)
Length of Visible Light 10h 14m
Length of Day
9h 10m
Waning Crescent, 0% of the Moon is Illuminated
Jan 11
Waning Crescent
Jan 11
New
Jan 18
First Quarter
Jan 26
Full
Feb 3
Last Quarter

Hourly Weather History & Observations

Time (EST) Temp. Windchill Dew Point Humidity Pressure Visibility Wind Dir Wind Speed Gust Speed Precip Events Conditions
12:54 AM 21.0 °F - 17.1 °F 85% 30.52 in 10.0 mi Calm Calm - N/A   Clear
1:54 AM 18.0 °F - 15.1 °F 88% 30.53 in 10.0 mi Calm Calm - N/A   Clear
2:54 AM 16.0 °F - 15.1 °F 96% 30.50 in 10.0 mi Calm Calm - 0.00 in   Clear
3:54 AM 12.9 °F - 12.0 °F 96% 30.50 in 10.0 mi Calm Calm - N/A   Clear
4:54 AM 14.0 °F - 12.9 °F 95% 30.48 in 10.0 mi Calm Calm - N/A   Clear
5:54 AM 14.0 °F - 10.9 °F 88% 30.50 in 10.0 mi Calm Calm - N/A   Clear
6:54 AM 12.9 °F - 10.9 °F 92% 30.53 in 10.0 mi Calm Calm - N/A   Clear
7:54 AM 15.1 °F - 12.0 °F 88% 30.53 in 10.0 mi Calm Calm - N/A   Clear
8:54 AM 19.9 °F - 17.1 °F 89% 30.52 in 10.0 mi Calm Calm - N/A   Clear
9:54 AM 27.0 °F - 21.9 °F 81% 30.50 in 10.0 mi Calm Calm - N/A   Clear
10:54 AM 32.0 °F 26.4 °F 21.9 °F 66% 30.46 in 10.0 mi ESE 5.8 mph - N/A   Clear
11:54 AM 35.1 °F 32.2 °F 21.0 °F 57% 30.41 in 10.0 mi East 3.5 mph - N/A   Clear
12:54 PM 37.0 °F 34.5 °F 21.0 °F 52% 30.38 in 10.0 mi Variable 3.5 mph - N/A   Clear
1:54 PM 36.0 °F 32.1 °F 19.0 °F 50% 30.38 in 10.0 mi South 4.6 mph - N/A   Clear
2:54 PM 36.0 °F 30.3 °F 19.0 °F 50% 30.37 in 10.0 mi South 6.9 mph - N/A   Mostly Cloudy
3:54 PM 34.0 °F 31.0 °F 19.9 °F 56% 30.33 in 10.0 mi SSE 3.5 mph - 0.00 in Rain Light Rain
4:54 PM 34.0 °F 29.8 °F 19.0 °F 54% 30.32 in 10.0 mi SSE 4.6 mph - 0.00 in   Overcast
5:54 PM 34.0 °F 31.0 °F 19.9 °F 56% 30.32 in 10.0 mi South 3.5 mph - N/A   Overcast
6:54 PM 33.1 °F 30.0 °F 21.9 °F 64% 30.30 in 10.0 mi South 3.5 mph - 0.00 in Rain Light Rain
7:54 PM 34.0 °F 31.0 °F 24.1 °F 67% 30.30 in 10.0 mi South 3.5 mph - 0.00 in   Overcast
8:43 PM 32.0 °F - 26.6 °F 80% 30.26 in 10.0 mi Calm Calm - 0.01 in   Overcast
8:54 PM 32.0 °F - 27.0 °F 82% 30.28 in 10.0 mi Calm Calm - 0.01 in   Overcast
9:54 PM 30.9 °F - 28.9 °F 92% 30.27 in 10.0 mi Calm Calm - 0.01 in   Overcast
10:54 PM 32.0 °F - 30.9 °F 96% 30.25 in 5.0 mi Calm Calm - 0.01 in   Overcast
11:33 PM 32.0 °F - 30.2 °F 93% 30.23 in 3.0 mi Calm Calm - 0.00 in   Overcast
11:54 PM 32.0 °F - 30.9 °F 96% 30.25 in 4.0 mi Calm Calm - 0.01 in   Overcast